Regional Weather Roundup
Issued by NWS Sterling, VA

Home | Current Version | Previous Version | Graphics & Text | Print | Product List | Glossary On
Versions: 1 2 3 4 5 6 7 8 9 10 11 12 13 14 15 16 17 18 19 20 21 22 23 24 25 26 27 28 29 30 31 32 33 34 35 36 37 38 39 40 41 42 43 44 45 46 47 48 49 50
000
ASUS41 KLWX 231810
RWRLWX

REGIONAL WEATHER ROUNDUP
NATIONAL WEATHER SERVICE BALTIMORE MD/WASHINGTON DC
200 PM EDT MON MAY 23 2016

Note: "FAIR" indicates few or no clouds below 12,000 feet
with no significant weather and/or obstructions to visibility.
 TC=TEMPERATURE CELSIUS

 * =Non NWS site. Station does not report precipitation (e.g. rain,
    snow, etc.), thunder, or fog.

DCZ001-MDZ009-015-VAZ040>042-051-053>054-231900-
WASHINGTON METRO

CITY           SKY/WX    TMP DP  RH WIND       PRES   REMARKS
WASHINGTON NAT CLOUDY    71  56  58 W8        29.93F
DULLES         PTSUNNY   70  52  52 N9        29.95F
ANDREWS AFB    CLOUDY    70  55  59 W9        29.92F
FT BELVOIR     DRIZZLE   70  57  64 W6        29.93F
QUANTICO       PTSUNNY   70  54  56 NW9       29.94F
COLLEGE PARK*  FAIR      70  52  52 N7        29.93S
LEESBURG*      FAIR      72  59  64 NW13G18   29.96F
MANASSAS*      PTSUNNY   72  55  56 CALM      29.95F

$$

MDZ006>007-011-014-231900-
BALTIMORE METRO

CITY           SKY/WX    TMP DP  RH WIND       PRES   REMARKS
BWI AIRPORT    CLOUDY    74  53  48 N6        29.91F
MD SCIENCE CTR   N/A     73  49  42 MISG      29.92F
MARTIN STATE   PTSUNNY   72  64  78 SE9       29.93F
ANNAPOLIS      CLOUDY    65  60  84 SE9       29.93S
FORT MEADE*    CLOUDY    70  54  56 CALM      29.94F

$$

MDZ012-015-019>023-231900-
MARYLAND EASTERN SHORE

CITY           SKY/WX    TMP DP  RH WIND       PRES   REMARKS
OCEAN CITY     CLOUDY    62  51  67 NE12      29.92S
SALISBURY      CLOUDY    66  51  58 NE6       29.92S
BAY BRIDGE AP* CLOUDY    70  57  64 W3        29.93S
CAMBRIDGE*     MOSUNNY   66  55  68 NW3       29.93S
EASTON*        PTSUNNY   68  61  77 N5        29.97S

$$

MDZ017>025-231900-
SOUTHERN MARYLAND

CITY           SKY/WX    TMP DP  RH WIND       PRES   REMARKS
PATUXENT RIVER PTSUNNY   64  56  75 NW9       29.94S
ST INIGOES     LGT RAIN  65  57  75 W3        29.93F
LEONARDTOWN*   PTSUNNY   64  57  77 N3        29.96R

$$

MDZ003>005-231900-
NORTH CENTRAL MARYLAND

CITY           SKY/WX    TMP DP  RH WIND       PRES   REMARKS
FREDERICK*     SUNNY     75  57  53 CALM      29.97F
HAGERSTOWN APT PTSUNNY   73  50  44 N10       29.95F
WESTMINSTER*   MOSUNNY   72  59  64 NW7       29.95F

$$

MDZ501>502-231900-
WESTERN MARYLAND

CITY           SKY/WX    TMP DP  RH WIND       PRES   REMARKS
OAKLAND*       PTSUNNY   61  45  55 N5        30.04F
CUMBERLAND*    MOSUNNY   73  50  43 SE3       30.01F

$$

VAZ025>031-231900-
SHENANDOAH VALLEY

CITY           SKY/WX    TMP DP  RH WIND       PRES   REMARKS
WINCHESTER*    PTSUNNY   70  52  52 NE3       29.97F
FRONT ROYAL*   FAIR      68  55  64 N3        29.97S
LURAY*         MOCLDY    64  59  82 NE3       29.98S
NEW MARKET*    FAIR      69  55  62 NE5       29.97S
STAUNTON*        N/A    N/A N/A N/A MISG        N/A
WAYNESBORO*    MOCLDY    62  53  72 S6        30.00F

$$

WVZ021-048>050-054>055-231900-
EASTERN WEST VIRGINIA PANHANDLE

CITY           SKY/WX    TMP DP  RH WIND       PRES   REMARKS
MARTINSBURG    PTSUNNY   72  52  49 N7        29.96F
PETERSBURG*    FAIR      70  56  63 CALM      30.00F

$$

VAZ036>039-050-231900-
CENTRAL FOOTHILLS

CITY           SKY/WX    TMP DP  RH WIND       PRES   REMARKS
CHARLOTTESVILL FAIR      69  52  54 NW6       29.98F
CULPEPER*      PTSUNNY   70  57  62 NW6       29.97F
ORANGE*        FAIR      72  55  56 CALM      29.98F
GORDONSVILLE*  FAIR      69  56  63 SW7       29.97F
WARRENTON*     FAIR      73  48  41 N6        29.95F

$$

VAZ055>057-231900-
NORTH AND CENTRAL PIEDMONT

CITY           SKY/WX    TMP DP  RH WIND       PRES   REMARKS
FREDERICKSBRG* FAIR      70  55  60 NW5       29.94F
STAFFORD*      PTSUNNY   70  53  55 W8        29.98F

$$

NCZ024-NYZ072-PAZ021-071-VAZ022-071-231900-
OTHER REGIONAL OBSERVATIONS

CITY           SKY/WX    TMP DP  RH WIND       PRES   REMARKS
NEW YORK CITY  CLOUDY    77  50  38 VRB6      29.91F
PHILADELPHIA   CLOUDY    76  54  46 E10       29.90F
PITTSBURGH     MOSUNNY   73  48  41 NW5       30.02F
ROANOKE        PTSUNNY   70  51  51 N8        30.02F
RICHMOND       LGT RAIN  62  56  80 NW7       29.96S
RALEIGH        CLOUDY    64  55  72 NE8G16    29.98S

$$

ANZ530>537-231900-
MARINE OBSERVATIONS

STATION/POSITION TIME  TEMP    WIND        PRES
                       AIR SEA DIR/SP/G
                 (UTC) (F)     (DEG/KT/KT) (MB)
THOMAS PT LIGHT  1800   63 61  140/  7/  8 1014.6F
BALT KEY BRIDGE  1700   69     290/  3/  5 1013.3F
COVE POINT       1700   61      10/  4/  7 1014.3F
LEWISETTA        1700   63 63  360/  8/ 12 1013.3F
SOLOMONS ISLAND  1700   64 62  270/  4/  6   N/A
PINEY POINT      1700          320/  9/ 10   N/A

$$




USA.gov is the U.S. government's official web portal to all federal, state and local government web resources and services.